Showing default

BALKAN-1, 62611

Orbit data source: Space-Track

BALKAN-1, 62611 is a payload satellite owned by Endurosat (BG) in SSO that was launched on Tue, 14 Jan 2025 UTC via an FALCON 9 launch vehicle from the Air Force Western Test Range (AFWTR). Payload-class satellites include a variety of spacecraft equipped with specific instruments for various scientific and technological missions. These include communications satellites like Starlink; space stations such as the ISS; scientific satellites like the Hubble; Earth observation satellites from companies like Planet Labs, Umbra, and HawkEye 360; GPS; miniature CubeSats for education and research; and military/defense satellites.

Loading next visibility...
Identifier
62611, 2025-009C
Orbit
SSO
Country
Flag of BGBG / BGR
Related business
Manufacturer
Endurosat
Mission
Operational Commercial Imaging
Bus & Motor
CUBESAT 16U, Unknown motor
Mass
32 kg wet, 32 kg dry
Launch date (UTC)
2025-01-14 (1 year ago)
Launch vehicle
FALCON 9
Launch site
Air Force Western Test Range (AFWTR)
Object type
Payload
Rocket body
Debris
Shape & HBR
Box + 2 Pan, 0.7 m
Radar Cross Section
0.124 m², Medium (>0.1 m² and < 1m²)

Expand to show TLE details & history
Last TLE update: 11 hours ago

TLE from 11 hours ago
0 BALKAN-1
1 62611U 25009C   26102.11736558  .00005809  00000-0  24139-3 0  9993
2 62611  97.3931 182.2194 0006598 193.3337 166.7727 15.24171419 68694
Epoch: 2026-04-12T02:49Z
TLE epoch observation values (Epoch: 2026-04-12T02:49:00.386Z)
Latitude
-0.00001°
Longitude
-60.35913°
Altitude
500.786 km
Speed
7.612 km/s
True Right ascension
12h 08m 52s
True Declination
0° 00' 00"
Sunlit
Object was in full shadow at epoch
Visualization orbit readout
Latitude
Unknown
Longitude
Unknown
Altitude
Unknown
Speed
Unknown
Apparent Right ascension
Unknown
Apparent Declination
Unknown
Sunlit
N/A
Visualization observer readout
Local Sidereal Time
20:20:12
Azimuth
Unknown
Elevation
Unknown
Doppler factor
Unknown
Orbital elements
Apogee altitude
494.766 km
Perigee altitude
485.703 km
Semi-major axis
6,868.371 km
Eccentricity
0.00066
Inclination
97.3931°
RAAN
182.2194°
Arg. of periapsis
193.3337°
True anomaly
166.78999°
Mean anomaly
166.7727°
Eccentric anomaly
166.78134°
Mean motion
3.81296 °/min
Orbital period
94.41 mins
BSTAR
0.00024139
Loading maneuver chart data...
Computing Atmospheric mass density...
Loading historical data...
Loading historical data...
Loading historical data...
Loading historical data...
Loading historical data...
Loading historical data...
Loading historical data...

Documentation

Showing up to 5 results
|